Regional Weather Roundup
Issued by NWS

Home | Current Version | Previous Version | Text Only | Print | Product List | Glossary Off
Versions: 1 2 3 4 5 6 7 8 9 10 11 12 13 14 15 16 17 18 19 20 21 22 23 24 25 26 27 28 29 30 31 32 33 34 35 36 37 38 39 40 41 42 43 44 45 46 47 48 49 50

000
ASUS43 KMKX 291411
RWRWI

WISCONSIN REGIONAL WEATHER ROUNDUP
NATIONAL WEATHER SERVICE MILWAUKEE/SULLIVAN WI
900 AM CDT WED JUL 29 2015

NOTE: "FAIR" INDICATES FEW OR NO CLOUDS BELOW 12,000 FEET WITH NO
SIGNIFICANT WEATHER AND/OR OBSTRUCTIONS TO VISIBILITY.

WIZ001-002-006>008-014>016-023>028-291500-
NORTHWEST WISCONSIN

CITY           SKY/WX    TMP DP  RH WIND       PRES   REMARKS
SUPERIOR ARPT  CLOUDY    67  53  59 SW21G29   29.74S
ASHLAND        CLOUDY    68  53  58 SW17G29   29.76S
HAYWARD        SUNNY     69  50  50 SW16G32   29.83S
SIREN          SUNNY     69  50  50 W14G26    29.85S
CUMBERLAND     SUNNY     68  48  49 W23G31    29.88S
RICE LAKE      SUNNY     69  50  51 SW18G29   29.90R
CHETEK         SUNNY     70  53  55 SW9G16    29.89S
LADYSMITH      SUNNY     70  52  52 W15G24    29.89S
EAU CLAIRE     SUNNY     71  53  52 W20G25    29.91S
MENOMONIE      SUNNY     72  50  46 SW13G28   29.92R
NEW RICHMOND   SUNNY     72  48  42 W20G32    29.92R
OSCEOLA        SUNNY     71  51  50 SW21      29.93S
$$

WIZ003>005-009-010-017-018-291500-
NORTH CENTRAL WISCONSIN

CITY           SKY/WX    TMP DP  RH WIND       PRES   REMARKS
MANITOWISH WTR SUNNY     67  52  57 SW12G31   29.82S
ARBOR VITAE    SUNNY     69  53  54 W16G28    29.84S
WOODRUFF       SUNNY     69  53  54 W16G28    29.84S
RHINELANDER    SUNNY     72  50  45 W17G31    29.86F
EAGLE RIVER    SUNNY     69  48  46 SW15G31   29.82F
LAND O LAKES   SUNNY     70  50  48 SW14G23   29.82F
PHILLIPS       SUNNY     68  53  58 SW13G26   29.85S
TOMAHAWK       SUNNY     69  51  53 W9G18     29.88F
MEDFORD        MOSUNNY   68  53  57 SW14G21   29.90F
MERRILL        NOT AVBL
$$

WIZ029-030-035-036-043>047-291500-
CENTRAL WISCONSIN

CITY           SKY/WX    TMP DP  RH WIND       PRES   REMARKS
WAUSAU         MOSUNNY   72  51  47 W15G22    29.90F
MOSINEE        SUNNY     70  55  60 W14       29.93F
MARSHFIELD     MOSUNNY   71  53  52 W14       29.94S
STEVENS POINT  PTSUNNY   71  52  50 W14G21    29.94S
WAUPACA        PTSUNNY   77  54  44 W14       29.93F
WAUTOMA        PTSUNNY   77  53  43 W10       29.95F
WISC RAPIDS    MOSUNNY   73  52  47 W13G21    29.96S
CAMP DOUGLAS   MOSUNNY   73  57  56 W13       29.96F
$$

WIZ011>013-019>022-031-037>040-048>050-291500-
NORTHEAST WISCONSIN

CITY           SKY/WX    TMP DP  RH WIND       PRES   REMARKS
ANTIGO         MOSUNNY   71  52  51 W13G26    29.90F
SHAWANO        PTSUNNY   75  56  51 W10G16    29.90F
OCONTO         PTSUNNY   77  56  48 W17G23    29.87F
STURGEON BAY   CLOUDY    75  57  53 W12       29.90F
GREEN BAY      PTSUNNY   77  58  51 W18G26    29.90F
MANITOWOC      CLOUDY    77  60  55 MISG      29.90S
APPLETON       MOSUNNY   73  57  56 W12G21    29.93F
CLINTONVILLE   PTSUNNY   73  54  49 W12G17    29.91S
OSHKOSH        PTSUNNY   76  59  55 W9        29.92F
$$

WIZ032>034-041-042-053>061-291500-
SOUTHWEST WISCONSIN

CITY           SKY/WX    TMP DP  RH WIND       PRES   REMARKS
LA CROSSE      SUNNY     75  52  44 W16       29.98R
SPARTA         MOSUNNY   73  52  48 W8        29.98S
VIROQUA        SUNNY     72  55  54 W10G16    30.01F
BOSCOBEL       PTSUNNY   75  61  61 SW6       30.01S
PRAIRIE DU CHI PTSUNNY   75  56  51 W6        30.01S
PLATTEVILLE    PTSUNNY   73  64  72 NW9       30.03S
$$

WIZ056-057-062-063-064-067-068-291500-
SOUTH CENTRAL WISCONSIN

CITY           SKY/WX    TMP DP  RH WIND       PRES   REMARKS
REEDSBURG      PTSUNNY   74  58  56 W8        29.98S
BARABOO/DELLS  PTSUNNY   74  53  47 W8        29.98S
LONE ROCK      PTSUNNY   74  59  59 W9        30.00S
MINERAL POINT  PTSUNNY   73  61  64 W8        30.02S
MADISON        PTSUNNY   73  64  73 NW6       29.98R
MIDDLETON      PTSUNNY   73  62  66 W9        30.00R
WATERTOWN      PTSUNNY   72  72 100 W8        29.96R
MONROE         PTSUNNY   73  61  64 NW13      30.01R
JANESVILLE     MOSUNNY   73  64  73 W6        29.98S
$$

WIZ051-052-058>065-066-070>072-291500-
SOUTHEAST WISCONSIN

CITY           SKY/WX    TMP DP  RH WIND       PRES   REMARKS
MILWAUKEE      CLOUDY    77  64  64 NW12      29.95R
WAUKESHA       MOSUNNY   73  64  73 NW12      29.98R
MILWAUKEE/TIMM PTSUNNY   75  64  69 W8        29.96R
RACINE         CLOUDY    79  67  66 NW10G20   29.97R HX  81
BURLINGTON     PTSUNNY   72  61  67 NW6       29.97S
KENOSHA        CLOUDY    76  70  82 NW13G20   29.97R
FOND DU LAC    PTSUNNY   75  58  55 W13       29.93S
SHEBOYGAN      CLOUDY    76  64  66 W7        29.92S
WEST BEND      CLOUDY    73  64  73 W7        29.95R
JUNEAU         PTSUNNY   73  62  69 W7        29.97R
$$

LSZ147-162-291500-
LAKE SUPERIOR

STATION/POSITION TIME  TEMP    WIND        PRES    WAVE
                       AIR SEA DIR/SP/G            HT/PER
                 (UTC) (F)     (DEG/KT/KT) (MB)    (FT/S)
W MID LAKE BUOY  1350   65 60  230/ 21/ 27 1005.0R   6/ 6
DEVILS ISLAND    1400   67     240/ 31/ 36 1005.3F
PORT WING        1340   68     220/ 13/ 24 1007.1S
SAXON HARBOR     1337   70                 1007.8S
$$

LMZ867-665-643>646-291500-
LAKE MICHIGAN

STATION/POSITION TIME  TEMP    WIND        PRES    WAVE
                       AIR SEA DIR/SP/G            HT/PER
                 (UTC) (F)     (DEG/KT/KT) (MB)    (FT/S)
CHAMBERS ISLAND  1300   75     220/  7/ 17 1011.2R
S GREEN BAY BUOY 1300   75 74  250/ 16/ 19 1013.4R
N MID LAKE BUOY  1350   74 69  250/ 14/ 16 1009.8S   2/ 4
NORTHPORT PIER   1300   76     280/  6/ 12 1010.8R
SISTER BAY       1329   77     290/ 16/ 19   N/A
ALGOMA LAKESHORE 1312          270/  6/ 13   N/A
KEWAUNEE LAKESHO 1300   76     280/  6/ 11 1011.6R
SHEBOYGAN LAKESH 1400   77     260/  6/  7 1013.1R
PORT WASHINGTON  1340   78     310/  5/ 11 1013.9R
ATWATER BUOY     1400   70     290/  6/  8 1015.2R
MILWAUKEE LAKESH 1300   76     300/ 10/ 15   N/A
KENOSHA   LAKESH 1400   77     310/ 10/ 15 1013.9R
$$

TC  - TEMPERATURE IN CELSIUS
VSB - VISIBILITY IN STATUTE MILES
WCI - WIND CHILL INDEX
HX  - HEAT INDEX




USA.gov is the U.S. government's official web portal to all federal, state and local government web resources and services.